Flag for Germany Weather past 2 weeks in Königswinter, North Rhine-Westphalia, Germany

Now
56 °F

Partly sunny.


Feels Like: 53 °F
Forecast: 52 / 64 °F
Wind: 10 mph from Southwest

Location: Bonn-Hangelar

Current Time: May 6, 2015 at 6:36:34 PM

Latest Report: May 6, 2015 at 6:00 PM


Visibility: 16 mi

Pressure: 29.88 "Hg

Humidity: 69%

Dew point: 46 °F

Location of KönigswinterLocation

Historic Weather in Königswinter — Graph

°F

Königswinter temperature yesterday

Maximum temperature yesterday: 69 °F (at 12:00 PM)
Minimum temperature yesterday: 53 °F (at 9:00 PM)
Average temperature yesterday: 62 °F

Past Weeks' High & Low Weather Summary

 TemperatureHumidityPressure
High69 °F (May 5, 12:00 PM)100% (Apr 27, 5:00 AM)30.47 "Hg (Apr 27, 5:00 AM)
Low33 °F (Apr 28, 6:00 AM)33% (Apr 21, 5:00 PM)29.38 "Hg (May 5, 5:00 AM)
Average51 °F76%29.89 "Hg
* Reported Apr 21 5:00 PM — May 6 5:00 PM, Königswinter, Weather by CustomWeather, © 2015

Note: Actual official high and low records may vary slightly from our data, if they occured in-between our weather recording intervals... More about our weather records

Advertising

Königswinter weather history for previous 24 hours

 ConditionsComfort  
Time TempWeatherWind HumidityBarometerVisibility
5:00 PM
Wed, May 6
56 °FPassing clouds.8 mph73%29.86 "Hg28 mi
4:00 PM48 °FRain showers. Overcast.12 mph88%29.91 "Hg9 mi
3:00 PM57 °FPartly sunny.13 mph64%29.87 "Hg25 mi
2:00 PM53 °FOvercast.8 mph76%29.86 "Hg25 mi
1:00 PM57 °FPartly sunny.12 mph59%29.87 "Hg25 mi
12:00 PM56 °FScattered clouds.10 mph63%29.88 "Hg25 mi
11:00 AM54 °FPassing clouds.13 mph63%29.88 "Hg25 mi
10:00 AM53 °FPassing clouds.10 mph65%29.88 "Hg25 mi
9:00 AM52 °FPassing clouds.8 mph73%29.88 "Hg31 mi
8:00 AM49 °FSunny.7 mph77%29.87 "Hg31 mi
7:00 AM48 °FSunny.7 mph80%29.87 "Hg19 mi
6:00 AM48 °FSunny.7 mph80%29.86 "Hg31 mi
5:00 AM49 °FClear.6 mph77%29.85 "Hg31 mi
4:00 AM50 °FClear.7 mph74%29.86 "Hg34 mi
3:00 AM51 °FPassing clouds.7 mph76%29.85 "Hg31 mi
2:00 AM53 °FClear.7 mph74%29.84 "Hg31 mi
1:00 AM54 °FClear.8 mph71%29.83 "Hg37 mi
12:00 AM54 °FPassing clouds.7 mph69%29.81 "Hg40 mi
11:00 PM
Tue, May 5
54 °FClear.6 mph72%29.81 "Hg43 mi
10:00 PM54 °FPassing clouds.5 mph72%29.80 "Hg40 mi
9:00 PM53 °FPassing clouds.3 mph73%29.79 "Hg43 mi
8:00 PM58 °FPartly sunny.9 mph58%29.76 "Hg25 mi
7:00 PM59 °FScattered clouds.8 mph66%29.74 "Hg22 mi
6:00 PM59 °FScattered clouds.9 mph73%29.72 "Hg14 mi
Weather by CustomWeather, © 2015

See weather overviewHow to use our weather pages